History for TLPC

Vigie, St. Lucia

Daily Weekly Monthly
Daily Summary for Thursday, August 25, 2016
  Actual: Average: Record:
Temperature
Mean Temperature: 82 °F / 28 °C - :  
Max Temperature: 89 °F / 31 °C 84 °F / 29 °C 89 °F / 31 °C (2010)
Min Temperature: 75 °F / 24 °C 79 °F / 26 °C 75 °F / 23 °C (2013)
Cooling Degree Days 17    
Growing Degree Days 32 (Base 50)    
Moisture
Dew Point 76 °F / 25 °C    
Average Humidity 77    
Maximum Humidity 100    
Minimum Humidity 60    
Precipitation
Precipitation 0.00 in / 0.0 cm - - ()
Sea Level Pressure
Sea Level Pressure 29.92 in / 1013.05 hPa   
Wind
Wind Speed 4 mph / 7 km/h ()  
Max Wind Speed 12 mph / 18 km/h   
Max Gust Speed 23 mph / 37 km/h   
Visibility 8.5 miles / 13.7 kilometers   
Events Rain   
Averages and records for this station are not official NWS values.
Key: T is trace of precipitation, MM is missing value
Source: Averaged Metar Reports
Seasonal Weather Averages

Graphs

Observations

History Graphs Observations

Obs Go Here...

Features

Weather Apps

WunderRadio

Weather Underground Apps
Check out our wide variety of mobile and setup applications.

Weather Underground Applications

Top of Page

© Copyright 2016
The Weather Company, LLC
Time(AST)TemperatureDew PointHumidity Sea Level Pressure Visibility Wind DirectionWind SpeedGust SpeedPrecipitationEvents Conditions
6:00 AM 77.0 °F / 25.0 °C 75.2 °F / 24.0 °C 94% 29.95 in / 1014 hPa 6.2 miles / 10.0 kilometers SSE 4.6 mph / 7.4 km/h - N/A   Scattered Clouds
7:00 AM 75.2 °F / 24.0 °C 75.2 °F / 24.0 °C 100% 29.95 in / 1014 hPa 6.2 miles / 10.0 kilometers Calm Calm - N/A Rain Light Rain Showers
8:00 AM 79 °F / 26 °C 78 °F / 25 °C 94% 29.96 in / 1015 hPa 12 miles / 20 kilometers Calm Calm - - Rain Light Rain Showers
8:00 AM 78.8 °F / 26.0 °C 77.0 °F / 25.0 °C 94% 29.95 in / 1014 hPa 6.2 miles / 10.0 kilometers Calm Calm - N/A Rain Light Rain Showers
9:00 AM 82.4 °F / 28.0 °C 75.2 °F / 24.0 °C 79% 29.95 in / 1014 hPa 6.2 miles / 10.0 kilometers ESE 3.5 mph / 5.6 km/h - N/A   Scattered Clouds
10:00 AM 82.4 °F / 28.0 °C 78.8 °F / 26.0 °C 89% 29.95 in / 1014 hPa 6.2 miles / 10.0 kilometers SW 4.6 mph / 7.4 km/h - N/A   Mostly Cloudy
11:00 AM 86 °F / 30 °C 77 °F / 25 °C 68% 29.94 in / 1014 hPa 19 miles / 30 kilometers SE 8.1 mph / 13.0 km/h - -   Partly Cloudy
11:00 AM 86.0 °F / 30.0 °C 77.0 °F / 25.0 °C 74% 29.92 in / 1013 hPa 6.2 miles / 10.0 kilometers SE 8.1 mph / 13.0 km/h - N/A   Partly Cloudy
12:00 PM 87.8 °F / 31.0 °C 77.0 °F / 25.0 °C 70% 29.92 in / 1013 hPa 6.2 miles / 10.0 kilometers SE 11.5 mph / 18.5 km/h 23.0 mph / 37.0 km/h N/A   Partly Cloudy
1:00 PM 87.8 °F / 31.0 °C 77.0 °F / 25.0 °C 70% 29.89 in / 1012 hPa 6.2 miles / 10.0 kilometers SSE 8.1 mph / 13.0 km/h - N/A   Partly Cloudy
2:00 PM 88 °F / 31 °C - %  in /  hPa 19 miles / 30 kilometers SSE 8.1 mph / 13.0 km/h - -  
2:00 PM 87.8 °F / 31.0 °C 77.0 °F / 25.0 °C 70% 29.89 in / 1012 hPa 6.2 miles / 10.0 kilometers SSE 8.1 mph / 13.0 km/h - N/A   Partly Cloudy
3:00 PM 87.8 °F / 31.0 °C 77.0 °F / 25.0 °C 70% 29.89 in / 1012 hPa 6.2 miles / 10.0 kilometers SE 9.2 mph / 14.8 km/h - N/A   Partly Cloudy
4:00 PM 87.8 °F / 31.0 °C 75.2 °F / 24.0 °C 66% 29.86 in / 1011 hPa 6.2 miles / 10.0 kilometers SSE 8.1 mph / 13.0 km/h - N/A   Partly Cloudy
5:00 PM 87 °F / 30 °C 75 °F / 24 °C 60% 29.89 in / 1012 hPa - SE 8.1 mph / 13.0 km/h - -  
5:00 PM 86.0 °F / 30.0 °C 75.2 °F / 24.0 °C 70% 29.89 in / 1012 hPa 6.2 miles / 10.0 kilometers SE 8.1 mph / 13.0 km/h - N/A   Scattered Clouds
6:00 PM 84.2 °F / 29.0 °C 75.2 °F / 24.0 °C 74% 29.89 in / 1012 hPa 6.2 miles / 10.0 kilometers ESE 5.8 mph / 9.3 km/h - N/A   Scattered Clouds
7:00 PM 84.2 °F / 29.0 °C 75.2 °F / 24.0 °C 74% 29.92 in / 1013 hPa 6.2 miles / 10.0 kilometers East 3.5 mph / 5.6 km/h - N/A   Partly Cloudy
8:00 PM 83 °F / 28 °C 76 °F / 24 °C 73% 29.94 in / 1014 hPa 19 miles / 30 kilometers ESE 4.6 mph / 7.4 km/h - -   Partly Cloudy
8:00 PM 82.4 °F / 28.0 °C 75.2 °F / 24.0 °C 79% 29.92 in / 1013 hPa 6.2 miles / 10.0 kilometers ESE 4.6 mph / 7.4 km/h - N/A   Partly Cloudy